Regional Weather Roundup
Issued by NWS Albany, NY

Home | Current Version | Previous Version | Graphics & Text | Print | Product List | Glossary Off
Versions: 1 2 3 4 5 6 7 8 9 10 11 12 13 14 15 16 17 18 19 20 21 22 23 24 25 26 27 28 29 30 31 32 33 34 35 36 37 38 39 40 41 42 43 44 45 46 47 48 49 50

000
ASUS41 KALY 271810
RWRALY

NEW YORK STATE HOURLY WEATHER ROUNDUP
NATIONAL WEATHER SERVICE ALBANY NY
200 PM EDT FRI MAR 27 2015

NOTE: "FAIR" INDICATES FEW OR NO CLOUDS BELOW 12,000 FEET WITH NO
SIGNIFICANT WEATHER AND/OR NO OBSTRUCTIONS TO VISIBILITY.

NYZ032-033-038>043-046>054-057>066-NYZ062>081-271900-
EAST


CITY           SKY/WX    TMP DP  RH WIND       PRES   REMARKS
ALBANY         CLOUDY    45  30  55 NW10      29.74S
GLENS FALLS    CLOUDY    41  34  76 S6        29.72R
POUGHKEEPSIE   CLOUDY    45  33  63 N6        29.72F
NEWBURGH       PTSUNNY   43  36  75 NW8       29.73F
MONTGOMERY     CLOUDY    44  30  57 NW6       29.72F
WHITE PLAINS   CLOUDY    43  33  68 NW8       29.71S
ISLIP          LGT RAIN  43  34  70 N7        29.70S
NEW YORK CITY  CLOUDY    44  34  67 NW8       29.73S
CENTRAL PARK   CLOUDY    44  33  65 CALM      29.76S
$$

NYZ005>009-017-018-044>046-055-056-271900-
CENTRAL


CITY           SKY/WX    TMP DP  RH WIND       PRES   REMARKS
FULTON         CLOUDY    34  25  69 NW15      29.83R WCI  24
SYRACUSE       PTSUNNY   38  27  64 NW17      29.82R WCI  28
ROME           CLOUDY    36  30  79 W7        29.81R WCI  30
ELMIRA         CLOUDY    37  22  54 N12       29.78F WCI  29
BINGHAMTON     CLOUDY    34  25  69 N9        29.73F WCI  27
MONTICELLO     CLOUDY    36  27  69 N10       29.73R WCI  28
$$

NYZ026>034-041>043-271900-
NORTH


CITY           SKY/WX    TMP DP  RH WIND       PRES   REMARKS
WATERTOWN      CLOUDY    32  26  78 N10       29.82S WCI  24
FORT DRUM      NOT AVBL
MASSENA        LGT SNOW  31  25  78 NW8       29.82F WCI  23
SARANAC LAKE   CLOUDY    34  27  75 VRB7      29.68R WCI  28
PLATTSBURGH    LGT SNOW  32  30  92 N16       29.77R FOG     WCI  21
$$

NYZ001>004-010>016-019>021-271900-
WEST


CITY           SKY/WX    TMP DP  RH WIND       PRES   REMARKS
NIAGARA FALLS  LGT SNOW  27  20  75 NW13      29.89R WCI  16
BUFFALO        LGT SNOW  28  22  78 NW10      29.88R WCI  19
DUNKIRK        FLURRIES  29  24  82 W10G21    29.90S WCI  20
JAMESTOWN      CLOUDY    27  19  74 SW12      29.83S WCI  16
WELLSVILLE     FLURRIES  31  22  69 NW9       29.76F WCI  23
ROCHESTER      CLOUDY    33  24  69 NW10      29.85R WCI  25
PENN YAN       CLOUDY    36  24  62 NW12      29.80F WCI  28
$$

             KEY
       WCI = WIND CHILL INDEX
       VSB = VISIBILITY
       HX  = HEAT INDEX
$$


USA.gov is the U.S. government's official web portal to all federal, state and local government web resources and services.